This is the latest recevied weather packets stored in our database for station/object N5UKZ-WX. If no packets are shown the sender has not sent any weather packets the latest 10 day(s).
| Time | Temp. | Humidity | Pressure | Rain* | Wind** | Luminosity | Snow |
|---|---|---|---|---|---|---|---|
| 1777519235 | 23.33° C | 82% | 1014.6 hPa | 0 mm | - | - | - |
| 1777518335 | 23.89° C | 80% | 1013.9 hPa | 0 mm | - | - | - |
| 1777517435 | 25° C | 78% | 1014.3 hPa | 0 mm | - | - | - |
| 1777516535 | 25° C | 75% | 1013.6 hPa | 0 mm | - | - | - |
| 1777515635 | 25° C | 74% | 1012.9 hPa | 0 mm | - | - | - |
| 1777514734 | 25° C | 73% | 1012.6 hPa | 0 mm | - | - | - |
| 1777513834 | 25.56° C | 72% | 1012.6 hPa | 0 mm | - | - | - |
| 1777512934 | 26.11° C | 71% | 1012.2 hPa | 0 mm | - | - | - |
| 1777512034 | 26.11° C | 71% | 1012.2 hPa | 0 mm | - | - | - |
| 1777511133 | 26.67° C | 72% | 1011.9 hPa | 0 mm | - | - | - |
| 1777510233 | 27.78° C | 72% | 1010.9 hPa | 0 mm | - | - | - |
| 1777509333 | 27.78° C | 72% | 1010.9 hPa | 0 mm | - | - | - |
| 1777508433 | 27.78° C | 71% | 1010.5 hPa | 0 mm | - | - | - |
| 1777507533 | 28.33° C | 70% | 1010.5 hPa | 0 mm | - | - | - |
| 1777506632 | 28.33° C | 69% | 1010.9 hPa | 0 mm | - | - | - |
| 1777505732 | 28.89° C | 69% | 1010.2 hPa | 0 mm | - | - | - |
| 1777504832 | 28.89° C | 67% | 1009.9 hPa | 0 mm | - | - | - |
| 1777503932 | 28.33° C | 66% | 1009.5 hPa | 0 mm | - | - | - |
| 1777503032 | 30.56° C | 64% | 1009.2 hPa | 0 mm | - | - | - |
| 1777502131 | 29.44° C | 62% | 1008.8 hPa | 0 mm | - | - | - |
| 1777501231 | 30.56° C | 59% | 1009.2 hPa | 0 mm | - | - | - |
| 1777500331 | 31.11° C | 60% | 1009.5 hPa | 0 mm | - | - | - |
| 1777499431 | 30.56° C | 62% | 1009.2 hPa | 0 mm | - | - | - |
| 1777498531 | 31.11° C | 62% | 1009.2 hPa | 0 mm | - | - | - |
| 1777497631 | 31.11° C | 61% | 1009.9 hPa | 0 mm | - | - | - |
* Rain latest hour (hover to see other rain measurements)
** Current wind speed in m/s (hover to see current wind gust speed)